| time (UTC) | temp C | wind direction | speed KPH | gust KPH | rain 1hr cm | rain 24hr cm | rain mn cm | humidity % | barometer mb |
| 20260906123237 | 20 | 11 | 0.0 | 0.0 | 0.00 | 0.00 | 0.00 | 99 | 1017.4 |
| 20260906122736 | 20 | 12 | 0.0 | 0.0 | 0.00 | 0.00 | 0.00 | 99 | 1017.4 |
| 20260906122231 | 20 | 11 | 0.0 | 0.0 | 0.00 | 0.00 | 0.00 | 99 | 1017.3 |
| 20260906121728 | 20 | 9 | 0.0 | 0.0 | 0.00 | 0.00 | 0.00 | 99 | 1017.5 |
| 20260906121224 | 20 | 13 | 0.0 | 0.0 | 0.00 | 0.00 | 0.00 | 99 | 1017.2 |
| 20260906120720 | 20 | 10 | 0.0 | 1.6 | 0.00 | 0.00 | 0.00 | 99 | 1017.0 |
| 20260906120216 | 20 | 13 | 0.0 | 0.0 | 0.00 | 0.00 | 0.00 | 99 | 1017.0 |
| 20260906115712 | 20 | 11 | 0.0 | 1.6 | 0.00 | 0.00 | 0.00 | 99 | 1017.1 |
| 20260906115207 | 20 | 12 | 0.0 | 1.6 | 0.00 | 0.00 | 0.00 | 99 | 1016.9 |
| 20260906114706 | 20 | 14 | 0.0 | 0.0 | 0.00 | 0.00 | 0.00 | 99 | 1016.9 |
| 20260906114201 | 20 | 13 | 0.0 | 0.0 | 0.00 | 0.00 | 0.00 | 99 | 1016.9 |
| 20260906113655 | 20 | 13 | 0.0 | 0.0 | 0.00 | 0.00 | 0.00 | 99 | 1016.7 |
| 20260906113155 | 20 | 13 | 0.0 | 0.0 | 0.00 | 0.00 | 0.00 | 99 | 1016.6 |
| 20260906112654 | 20 | 13 | 0.0 | 0.0 | 0.00 | 0.00 | 0.00 | 99 | 1016.9 |
| 20260906112152 | 20 | 13 | 0.0 | 0.0 | 0.00 | 0.00 | 0.00 | 99 | 1016.7 |
| 20260906111650 | 20 | 14 | 0.0 | 0.0 | 0.00 | 0.00 | 0.00 | 99 | 1016.3 |
| 20260906111145 | 20 | 13 | 0.0 | 0.0 | 0.00 | 0.00 | 0.00 | 99 | 1016.4 |
| 20260906110640 | 20 | 11 | 0.0 | 0.0 | 0.00 | 0.00 | 0.00 | 99 | 1016.3 |
| 20260906110136 | 20 | 11 | 0.0 | 0.0 | 0.00 | 0.00 | 0.00 | 99 | 1016.2 |
| 20260906105629 | 20 | 11 | 0.0 | 0.0 | 0.00 | 0.00 | 0.00 | 99 | 1016.0 |
| 20260906105126 | 20 | 11 | 0.0 | 0.0 | 0.00 | 0.00 | 0.00 | 99 | 1016.0 |
| 20260906104625 | 20 | 11 | 0.0 | 0.0 | 0.00 | 0.00 | 0.00 | 99 | 1016.0 |
| 20260906104120 | 20 | 11 | 0.0 | 0.0 | 0.00 | 0.00 | 0.00 | 99 | 1015.8 |
| 20260906103618 | 20 | 11 | 0.0 | 0.0 | 0.00 | 0.00 | 0.00 | 99 | 1015.9 |
| 20260906103114 | 20 | 11 | 0.0 | 0.0 | 0.00 | 0.00 | 0.00 | 99 | 1015.9 |
| 20260906102613 | 20 | 11 | 0.0 | 0.0 | 0.00 | 0.00 | 0.00 | 99 | 1015.9 |
| 20260906102108 | 20 | 11 | 0.0 | 0.0 | 0.00 | 0.00 | 0.00 | 99 | 1015.7 |
| 20260906101602 | 20 | 11 | 0.0 | 0.0 | 0.00 | 0.00 | 0.00 | 99 | 1015.9 |
| 20260906101057 | 20 | 11 | 0.0 | 0.0 | 0.00 | 0.00 | 0.00 | 99 | 1015.7 |
| 20260906100553 | 20 | 12 | 0.0 | 0.0 | 0.00 | 0.00 | 0.00 | 99 | 1015.8 |
| 20260906100047 | 20 | 12 | 0.0 | 0.0 | 0.00 | 0.00 | 0.00 | 99 | 1015.8 |
| 20260906095547 | 19 | 12 | 0.0 | 0.0 | 0.00 | 0.00 | 0.00 | 99 | 1016.1 |
| 20260906095043 | 19 | 12 | 0.0 | 0.0 | 0.00 | 0.00 | 0.00 | 99 | 1015.7 |
| 20260906094541 | 19 | 12 | 0.0 | 0.0 | 0.00 | 0.00 | 0.00 | 99 | 1015.7 |
| 20260906094038 | 19 | 12 | 0.0 | 0.0 | 0.00 | 0.00 | 0.00 | 99 | 1015.6 |
| 20260906093533 | 19 | 12 | 0.0 | 0.0 | 0.00 | 0.00 | 0.00 | 99 | 1015.6 |
| 20260906093034 | 19 | 12 | 0.0 | 0.0 | 0.00 | 0.00 | 0.00 | 99 | 1015.6 |
| 20260906092528 | 19 | 12 | 0.0 | 0.0 | 0.00 | 0.00 | 0.00 | 99 | 1015.6 |
| 20260906092024 | 19 | 12 | 0.0 | 0.0 | 0.00 | 0.00 | 0.00 | 99 | 1015.7 |
| 20260906091520 | 19 | 13 | 0.0 | 0.0 | 0.00 | 0.00 | 0.00 | 99 | 1015.8 |
| 20260906091016 | 19 | 13 | 0.0 | 0.0 | 0.00 | 0.00 | 0.00 | 99 | 1015.7 |
| 20260906090511 | 19 | 16 | 0.0 | 3.2 | 0.00 | 0.00 | 0.00 | 99 | 1015.8 |
| 20260906090010 | 18 | 16 | 0.0 | 1.6 | 0.00 | 0.00 | 0.00 | 99 | 1015.7 |
| 20260906085509 | 18 | 15 | 1.6 | 1.6 | 0.00 | 0.00 | 0.00 | 99 | 1015.6 |
| 20260906085010 | 18 | 4 | 1.6 | 3.2 | 0.00 | 0.00 | 0.00 | 99 | 1015.6 |
| 20260906084509 | 18 | 8 | 1.6 | 1.6 | 0.00 | 0.00 | 0.00 | 99 | 1015.7 |
| 20260906084008 | 18 | 12 | 1.6 | 1.6 | 0.00 | 0.00 | 0.00 | 99 | 1015.7 |
| 20260906083504 | 18 | 12 | 1.6 | 1.6 | 0.00 | 0.00 | 0.00 | 99 | 1015.6 |
| 20260906083003 | 18 | 14 | 0.0 | 0.0 | 0.00 | 0.00 | 0.00 | 99 | 1015.8 |
| 20260906082459 | 18 | 13 | 0.0 | 0.0 | 0.00 | 0.00 | 0.00 | 99 | 1015.8 |
| 20260906081954 | 18 | 19 | 0.0 | 0.0 | 0.00 | 0.00 | 0.00 | 99 | 1015.7 |
| 20260906081449 | 18 | 14 | 0.0 | 0.0 | 0.00 | 0.00 | 0.00 | 99 | 1015.9 |
| 20260906080945 | 18 | 15 | 0.0 | 0.0 | 0.00 | 0.00 | 0.00 | 99 | 1015.8 |
| 20260906080442 | 18 | 15 | 0.0 | 0.0 | 0.00 | 0.00 | 0.00 | 99 | 1015.9 |
| 20260906075937 | 18 | 15 | 0.0 | 0.0 | 0.00 | 0.00 | 0.00 | 99 | 1015.6 |
| 20260906075432 | 18 | 15 | 0.0 | 0.0 | 0.00 | 0.00 | 0.00 | 99 | 1015.7 |
| 20260906074927 | 18 | 15 | 0.0 | 0.0 | 0.00 | 0.00 | 0.00 | 99 | 1015.6 |
| 20260906074426 | 18 | 15 | 0.0 | 0.0 | 0.00 | 0.00 | 0.00 | 99 | 1015.7 |
| 20260906073925 | 19 | 14 | 0.0 | 0.0 | 0.00 | 0.00 | 0.00 | 99 | 1015.6 |
| 20260906073420 | 19 | 15 | 0.0 | 0.0 | 0.00 | 0.00 | 0.00 | 99 | 1015.6 |
| 20260906072917 | 19 | 14 | 0.0 | 1.6 | 0.00 | 0.00 | 0.00 | 99 | 1015.5 |
| 20260906072412 | 19 | 14 | 0.0 | 0.0 | 0.00 | 0.00 | 0.00 | 99 | 1015.4 |
| 20260906071908 | 19 | 14 | 0.0 | 1.6 | 0.00 | 0.00 | 0.00 | 99 | 1015.4 |
| 20260906071403 | 19 | 13 | 0.0 | 0.0 | 0.00 | 0.00 | 0.00 | 99 | 1015.5 |
| 20260906070859 | 19 | 14 | 0.0 | 1.6 | 0.00 | 0.00 | 0.00 | 99 | 1015.5 |
| 20260906070355 | 19 | 18 | 0.0 | 1.6 | 0.00 | 0.00 | 0.00 | 99 | 1015.4 |
| 20260906065850 | 19 | 352 | 3.2 | 3.2 | 0.00 | 0.00 | 0.00 | 99 | 1015.4 |
| 20260906065344 | 19 | 13 | 0.0 | 1.6 | 0.00 | 0.00 | 0.00 | 99 | 1015.3 |
| 20260906064840 | 19 | 7 | 1.6 | 1.6 | 0.00 | 0.00 | 0.00 | 99 | 1015.5 |
| 20260906064336 | 19 | 15 | 0.0 | 1.6 | 0.00 | 0.00 | 0.00 | 99 | 1015.5 |
| 20260906063830 | 20 | 15 | 0.0 | 0.0 | 0.00 | 0.00 | 0.00 | 99 | 1015.7 |
| 20260906063326 | 20 | 16 | 0.0 | 0.0 | 0.00 | 0.00 | 0.00 | 99 | 1015.7 |
| 20260906062821 | 20 | 13 | 0.0 | 0.0 | 0.00 | 0.00 | 0.00 | 99 | 1015.8 |
| 20260906062320 | 20 | 13 | 0.0 | 0.0 | 0.00 | 0.00 | 0.00 | 99 | 1015.8 |
| 20260906061816 | 20 | 13 | 0.0 | 0.0 | 0.00 | 0.00 | 0.00 | 99 | 1015.5 |
| 20260906061313 | 20 | 15 | 0.0 | 0.0 | 0.00 | 0.00 | 0.00 | 99 | 1015.9 |
| 20260906060812 | 20 | 15 | 0.0 | 0.0 | 0.00 | 0.00 | 0.00 | 99 | 1015.9 |
| 20260906060311 | 20 | 15 | 0.0 | 0.0 | 0.00 | 0.00 | 0.00 | 99 | 1015.8 |
| 20260906055806 | 20 | 15 | 0.0 | 0.0 | 0.00 | 0.00 | 0.00 | 99 | 1015.6 |
| 20260906055301 | 20 | 16 | 0.0 | 0.0 | 0.00 | 0.00 | 0.00 | 99 | 1015.9 |
| 20260906054756 | 20 | 19 | 0.0 | 0.0 | 0.00 | 0.00 | 0.00 | 99 | 1015.8 |
| 20260906054252 | 20 | 20 | 0.0 | 0.0 | 0.00 | 0.00 | 0.00 | 99 | 1015.6 |
| 20260906053748 | 20 | 18 | 0.0 | 0.0 | 0.00 | 0.00 | 0.00 | 99 | 1015.7 |
| 20260906053244 | 20 | 18 | 0.0 | 0.0 | 0.00 | 0.00 | 0.00 | 99 | 1015.6 |
| 20260906052738 | 20 | 14 | 0.0 | 0.0 | 0.00 | 0.00 | 0.00 | 99 | 1015.7 |
| 20260906052235 | 20 | 12 | 0.0 | 0.0 | 0.00 | 0.00 | 0.00 | 99 | 1015.6 |
| 20260906051731 | 20 | 12 | 0.0 | 0.0 | 0.00 | 0.00 | 0.00 | 99 | 1015.6 |
| 20260906051231 | 20 | 12 | 0.0 | 0.0 | 0.00 | 0.00 | 0.00 | 99 | 1015.7 |
| 20260906050726 | 20 | 13 | 0.0 | 0.0 | 0.00 | 0.00 | 0.00 | 99 | 1015.6 |
| 20260906050221 | 20 | 16 | 0.0 | 3.2 | 0.00 | 0.00 | 0.00 | 99 | 1015.7 |
| 20260906045720 | 20 | 7 | 1.6 | 1.6 | 0.00 | 0.00 | 0.00 | 99 | 1015.4 |
| 20260906045215 | 20 | 8 | 1.6 | 1.6 | 0.00 | 0.00 | 0.00 | 99 | 1015.3 |
| 20260906044711 | 20 | 14 | 0.0 | 0.0 | 0.00 | 0.00 | 0.00 | 99 | 1015.3 |
| 20260906044206 | 20 | 12 | 0.0 | 1.6 | 0.00 | 0.00 | 0.00 | 99 | 1015.5 |
| 20260906043702 | 20 | 15 | 0.0 | 0.0 | 0.00 | 0.00 | 0.00 | 99 | 1015.5 |
| 20260906043158 | 20 | 15 | 0.0 | 0.0 | 0.00 | 0.00 | 0.00 | 99 | 1015.4 |
| 20260906042657 | 20 | 15 | 0.0 | 0.0 | 0.00 | 0.00 | 0.00 | 99 | 1015.5 |
| 20260906042150 | 20 | 15 | 0.0 | 0.0 | 0.00 | 0.00 | 0.00 | 99 | 1015.4 |
| 20260906041646 | 20 | 15 | 0.0 | 0.0 | 0.00 | 0.00 | 0.00 | 99 | 1015.6 |
| 20260906041141 | 20 | 15 | 0.0 | 0.0 | 0.00 | 0.00 | 0.00 | 99 | 1015.7 |
| 20260906040637 | 20 | 15 | 0.0 | 0.0 | 0.00 | 0.00 | 0.00 | 99 | 1015.5 |
| 20260906040132 | 20 | 16 | 0.0 | 0.0 | 0.00 | 1.73 | 1.73 | 99 | 1015.4 |
| 20260906035627 | 20 | 17 | 0.0 | 1.6 | 0.00 | 1.73 | 1.73 | 99 | 1015.8 |
| 20260906035123 | 20 | 16 | 0.0 | 0.0 | 0.00 | 1.73 | 1.73 | 99 | 1015.7 |
| 20260906034617 | 20 | 16 | 0.0 | 0.0 | 0.00 | 1.73 | 1.73 | 99 | 1015.7 |
| 20260906034112 | 20 | 16 | 0.0 | 0.0 | 0.00 | 1.73 | 1.73 | 99 | 1015.7 |
| 20260906033608 | 20 | 16 | 0.0 | 0.0 | 0.00 | 1.73 | 1.73 | 99 | 1015.8 |
| 20260906033103 | 21 | 16 | 0.0 | 0.0 | 0.00 | 1.73 | 1.73 | 99 | 1015.9 |
| 20260906032559 | 21 | 15 | 0.0 | 0.0 | 0.00 | 1.73 | 1.73 | 99 | 1016.2 |
| 20260906032059 | 21 | 14 | 0.0 | 0.0 | 0.00 | 1.73 | 1.73 | 99 | 1015.9 |
| 20260906031554 | 21 | 14 | 0.0 | 0.0 | 0.00 | 1.73 | 1.73 | 99 | 1016.0 |
| 20260906031050 | 21 | 352 | 3.2 | 3.2 | 0.00 | 1.73 | 1.73 | 99 | 1015.9 |
| 20260906030549 | 21 | 14 | 0.0 | 1.6 | 0.00 | 1.73 | 1.73 | 99 | 1016.0 |
| 20260906030049 | 21 | 353 | 6.4 | 11.3 | 0.00 | 1.73 | 1.73 | 99 | 1016.3 |
| 20260906025543 | 21 | 13 | 0.0 | 0.0 | 0.00 | 1.73 | 1.73 | 99 | 1016.1 |
| 20260906025041 | 21 | 14 | 0.0 | 0.0 | 0.00 | 1.73 | 1.73 | 99 | 1016.3 |
| 20260906024537 | 20 | 14 | 0.0 | 0.0 | 0.00 | 1.73 | 1.73 | 99 | 1016.0 |
| 20260906024032 | 21 | 14 | 0.0 | 0.0 | 0.00 | 1.73 | 1.73 | 99 | 1016.1 |
| 20260906023528 | 21 | 14 | 0.0 | 0.0 | 0.00 | 1.73 | 1.73 | 99 | 1016.0 |
| 20260906023028 | 21 | 14 | 0.0 | 0.0 | 0.00 | 1.73 | 1.73 | 99 | 1015.8 |
| 20260906022523 | 21 | 15 | 0.0 | 0.0 | 0.00 | 1.73 | 1.73 | 99 | 1015.9 |
| 20260906022019 | 21 | 13 | 0.0 | 0.0 | 0.00 | 1.73 | 1.73 | 99 | 1016.1 |
| 20260906021514 | 21 | 12 | 0.0 | 0.0 | 0.00 | 1.73 | 1.73 | 99 | 1016.0 |
| 20260906021009 | 21 | 11 | 0.0 | 0.0 | 0.00 | 1.73 | 1.73 | 99 | 1015.9 |
| 20260906020507 | 21 | 10 | 0.0 | 0.0 | 0.00 | 1.73 | 1.73 | 99 | 1016.1 |
| 20260906020007 | 21 | 11 | 0.0 | 0.0 | 0.00 | 1.73 | 1.73 | 99 | 1015.9 |
| 20260906015501 | 21 | 7 | 0.0 | 0.0 | 0.00 | 1.73 | 1.73 | 99 | 1015.8 |
| 20260906015000 | 21 | 359 | 0.0 | 0.0 | 0.00 | 1.73 | 1.73 | 99 | 1015.8 |
| 20260906014455 | 21 | 332 | 0.0 | 0.0 | 0.00 | 1.73 | 1.73 | 99 | 1015.6 |
| 20260906013951 | 21 | 307 | 0.0 | 0.0 | 0.00 | 1.73 | 1.73 | 99 | 1015.7 |
| 20260906013446 | 21 | 311 | 0.0 | 3.2 | 0.00 | 1.73 | 1.73 | 99 | 1015.5 |
| 20260906012942 | 21 | 296 | 0.0 | 1.6 | 0.00 | 1.73 | 1.73 | 99 | 1015.4 |
| 20260906012436 | 21 | 299 | 0.0 | 1.6 | 0.00 | 1.73 | 1.73 | 99 | 1015.5 |
| 20260906011936 | 21 | 272 | 1.6 | 3.2 | 0.00 | 1.73 | 1.73 | 99 | 1015.4 |
| 20260906011431 | 21 | 284 | 1.6 | 1.6 | 0.00 | 1.73 | 1.73 | 99 | 1015.1 |
| 20260906010926 | 21 | 288 | 0.0 | 1.6 | 0.00 | 1.73 | 1.73 | 99 | 1015.2 |
| 20260906010422 | 21 | 290 | 0.0 | 0.0 | 0.00 | 1.73 | 1.73 | 99 | 1015.2 |
| 20260906005918 | 21 | 290 | 0.0 | 0.0 | 0.00 | 1.73 | 1.73 | 99 | 1014.8 |
| 20260906005417 | 21 | 264 | 0.0 | 0.0 | 0.00 | 1.73 | 1.73 | 99 | 1014.9 |
| 20260906004915 | 21 | 263 | 0.0 | 0.0 | 0.00 | 1.73 | 1.73 | 99 | 1014.9 |
| 20260906004410 | 22 | 235 | 0.0 | 0.0 | 0.00 | 1.73 | 1.73 | 99 | 1014.7 |
| 20260906003906 | 22 | 263 | 0.0 | 0.0 | 0.00 | 1.73 | 1.73 | 99 | 1014.5 |
| 20260906003401 | 22 | 263 | 0.0 | 0.0 | 0.00 | 1.73 | 1.73 | 99 | 1014.5 |
| 20260906002857 | 22 | 263 | 0.0 | 0.0 | 0.00 | 1.73 | 1.73 | 98 | 1014.5 |
| 20260906002355 | 22 | 263 | 0.0 | 0.0 | 0.00 | 1.73 | 1.73 | 98 | 1014.5 |
| 20260906001851 | 22 | 263 | 0.0 | 0.0 | 0.00 | 1.73 | 1.73 | 98 | 1014.6 |
| 20260906001347 | 22 | 263 | 0.0 | 0.0 | 0.00 | 1.73 | 1.73 | 98 | 1014.8 |
| 20260906000843 | 22 | 263 | 0.0 | 0.0 | 0.00 | 1.73 | 1.73 | 97 | 1014.9 |
| 20260906000342 | 22 | 263 | 0.0 | 0.0 | 0.00 | 1.73 | 1.73 | 97 | 1015.1 |
| 20260905235842 | 22 | 263 | 0.0 | 0.0 | 0.00 | 1.73 | 1.73 | 96 | 1015.1 |
| 20260905235337 | 22 | 263 | 0.0 | 0.0 | 0.00 | 1.73 | 1.73 | 96 | 1014.9 |
| 20260905234832 | 22 | 263 | 0.0 | 0.0 | 0.00 | 1.73 | 1.73 | 96 | 1014.8 |
| 20260905234327 | 22 | 263 | 0.0 | 0.0 | 0.00 | 1.73 | 1.73 | 96 | 1014.9 |
| 20260905233822 | 23 | 263 | 0.0 | 0.0 | 0.00 | 1.73 | 1.73 | 96 | 1014.8 |
| 20260905233317 | 23 | 263 | 0.0 | 0.0 | 0.00 | 1.73 | 1.73 | 96 | 1014.8 |
| 20260905232816 | 23 | 263 | 0.0 | 0.0 | 0.00 | 1.73 | 1.73 | 95 | 1015.1 |
| 20260905232313 | 23 | 263 | 0.0 | 0.0 | 0.00 | 1.73 | 1.73 | 95 | 1014.7 |
| 20260905231808 | 23 | 263 | 0.0 | 0.0 | 0.00 | 1.73 | 1.73 | 94 | 1014.9 |
| 20260905231303 | 23 | 263 | 0.0 | 0.0 | 0.00 | 1.73 | 1.73 | 94 | 1014.8 |
| 20260905230759 | 23 | 263 | 0.0 | 0.0 | 0.00 | 1.73 | 1.73 | 93 | 1014.8 |
| 20260905230257 | 23 | 263 | 0.0 | 0.0 | 0.00 | 1.73 | 1.73 | 94 | 1014.9 |
| 20260905225757 | 24 | 263 | 0.0 | 1.6 | 0.00 | 1.73 | 1.73 | 93 | 1014.8 |
| 20260905225252 | 24 | 256 | 0.0 | 0.0 | 0.00 | 1.73 | 1.73 | 93 | 1014.8 |
| 20260905224751 | 25 | 253 | 0.0 | 0.0 | 0.00 | 1.73 | 1.73 | 93 | 1014.7 |
| 20260905224247 | 25 | 131 | 1.6 | 1.6 | 0.00 | 1.73 | 1.73 | 92 | 1014.8 |
| 20260905223742 | 25 | 259 | 0.0 | 0.0 | 0.00 | 1.73 | 1.73 | 90 | 1014.8 |
| 20260905223240 | 25 | 258 | 0.0 | 0.0 | 0.00 | 1.73 | 1.73 | 89 | 1014.8 |
| 20260905222735 | 25 | 269 | 0.0 | 0.0 | 0.00 | 1.73 | 1.73 | 88 | 1014.9 |
| 20260905222234 | 26 | 259 | 0.0 | 0.0 | 0.00 | 1.73 | 1.73 | 88 | 1014.9 |
| 20260905221730 | 26 | 260 | 0.0 | 0.0 | 0.00 | 1.73 | 1.73 | 84 | 1015.2 |
| 20260905221227 | 26 | 260 | 0.0 | 0.0 | 0.00 | 1.73 | 1.73 | 85 | 1015.1 |
| 20260905220722 | 26 | 264 | 0.0 | 0.0 | 0.00 | 1.73 | 1.73 | 84 | 1015.1 |
| 20260905220218 | 27 | 125 | 1.6 | 1.6 | 0.00 | 1.73 | 1.73 | 85 | 1014.9 |
| 20260905215717 | 27 | 208 | 0.0 | 1.6 | 0.00 | 1.73 | 1.73 | 79 | 1015.1 |
| 20260905215213 | 28 | 125 | 1.6 | 3.2 | 0.00 | 1.73 | 1.73 | 72 | 1014.7 |
| 20260905214709 | 29 | 122 | 3.2 | 3.2 | 0.00 | 1.73 | 1.73 | 69 | 1014.7 |
| 20260905214204 | 29 | 146 | 0.0 | 1.6 | 0.00 | 1.73 | 1.73 | 71 | 1014.7 |
| 20260905213659 | 29 | 143 | 1.6 | 3.2 | 0.00 | 1.73 | 1.73 | 66 | 1014.6 |
| 20260905213155 | 30 | 120 | 1.6 | 3.2 | 0.00 | 1.73 | 1.73 | 64 | 1014.6 |
| 20260905212650 | 28 | 124 | 1.6 | 4.8 | 0.00 | 1.73 | 1.73 | 67 | 1014.6 |
| 20260905212149 | 29 | 79 | 4.8 | 6.4 | 0.00 | 1.73 | 1.73 | 66 | 1014.4 |
| 20260905211644 | 30 | 272 | 3.2 | 4.8 | 0.00 | 1.73 | 1.73 | 65 | 1014.2 |
| 20260905211140 | 30 | 120 | 1.6 | 3.2 | 0.00 | 1.73 | 1.73 | 68 | 1014.4 |
| 20260905210637 | 29 | 114 | 1.6 | 4.8 | 0.00 | 1.73 | 1.73 | 69 | 1014.4 |
| 20260905210131 | 29 | 92 | 4.8 | 4.8 | 0.00 | 1.73 | 1.73 | 67 | 1014.4 |
| 20260905205630 | 28 | 140 | 1.6 | 3.2 | 0.00 | 1.73 | 1.73 | 66 | 1014.3 |
| 20260905205124 | 28 | 136 | 1.6 | 3.2 | 0.00 | 1.73 | 1.73 | 72 | 1014.4 |
| 20260905204623 | 28 | 99 | 3.2 | 4.8 | 0.00 | 1.73 | 1.73 | 69 | 1014.4 |
| 20260905204119 | 29 | 96 | 4.8 | 4.8 | 0.00 | 1.73 | 1.73 | 68 | 1014.4 |
| 20260905203619 | 28 | 36 | 6.4 | 9.7 | 0.00 | 1.73 | 1.73 | 69 | 1014.4 |
| 20260905203115 | 28 | 274 | 0.0 | 4.8 | 0.00 | 1.73 | 1.73 | 67 | 1014.5 |
| 20260905202610 | 29 | 74 | 9.7 | 12.9 | 0.00 | 1.73 | 1.73 | 68 | 1014.4 |
| 20260905202105 | 29 | 232 | 3.2 | 6.4 | 0.00 | 1.73 | 1.73 | 66 | 1014.4 |
| 20260905201601 | 30 | 164 | 0.0 | 3.2 | 0.00 | 1.73 | 1.73 | 63 | 1014.5 |
| 20260905201101 | 31 | 263 | 3.2 | 3.2 | 0.00 | 1.73 | 1.73 | 61 | 1014.8 |
| 20260905200556 | 30 | 255 | 0.0 | 1.6 | 0.00 | 1.73 | 1.73 | 62 | 1014.8 |
| 20260905200055 | 30 | 268 | 1.6 | 3.2 | 0.00 | 1.73 | 1.73 | 62 | 1015.1 |
| 20260905195549 | 30 | 249 | 3.2 | 3.2 | 0.00 | 1.73 | 1.73 | 62 | 1014.8 |
| 20260905195045 | 28 | 145 | 0.0 | 1.6 | 0.00 | 1.73 | 1.73 | 68 | 1014.9 |
| 20260905194544 | 29 | 110 | 3.2 | 4.8 | 0.00 | 1.73 | 1.73 | 66 | 1014.9 |
| 20260905194044 | 30 | 114 | 3.2 | 6.4 | 0.00 | 1.73 | 1.73 | 67 | 1014.8 |
| 20260905193539 | 28 | 125 | 1.6 | 4.8 | 0.00 | 1.73 | 1.73 | 70 | 1015.1 |
| 20260905193034 | 28 | 88 | 4.8 | 6.4 | 0.00 | 1.73 | 1.73 | 68 | 1014.9 |
| 20260905192529 | 30 | 122 | 0.0 | 1.6 | 0.00 | 1.73 | 1.73 | 62 | 1015.3 |
| 20260905192026 | 30 | 241 | 3.2 | 6.4 | 0.00 | 1.73 | 1.73 | 62 | 1015.3 |
| 20260905191524 | 30 | 251 | 0.0 | 1.6 | 0.00 | 1.73 | 1.73 | 62 | 1015.4 |
| 20260905191023 | 30 | 264 | 0.0 | 1.6 | 0.00 | 1.73 | 1.73 | 62 | 1015.5 |
| 20260905190521 | 28 | 127 | 1.6 | 3.2 | 0.00 | 1.73 | 1.73 | 66 | 1015.6 |
| 20260905190016 | 29 | 259 | 0.0 | 3.2 | 0.00 | 1.73 | 1.73 | 66 | 1015.6 |
| 20260905185516 | 30 | 264 | 1.6 | 1.6 | 0.00 | 1.73 | 1.73 | 67 | 1015.6 |
| 20260905185015 | 28 | 251 | 0.0 | 1.6 | 0.00 | 1.73 | 1.73 | 63 | 1015.8 |
| 20260905184510 | 28 | 141 | 0.0 | 6.4 | 0.00 | 1.73 | 1.73 | 69 | 1016.0 |
| 20260905184008 | 28 | 249 | 0.0 | 4.8 | 0.00 | 1.73 | 1.73 | 67 | 1016.1 |
| 20260905183508 | 28 | 273 | 1.6 | 1.6 | 0.00 | 1.73 | 1.73 | 71 | 1016.3 |
| 20260905183003 | 27 | 264 | 0.0 | 1.6 | 0.00 | 1.73 | 1.73 | 74 | 1016.2 |
| 20260905182502 | 27 | 164 | 0.0 | 1.6 | 0.00 | 1.73 | 1.73 | 69 | 1016.2 |
| 20260905181958 | 27 | 116 | 3.2 | 4.8 | 0.00 | 1.73 | 1.73 | 70 | 1016.4 |
| 20260905181453 | 27 | 120 | 3.2 | 4.8 | 0.00 | 1.73 | 1.73 | 71 | 1016.3 |
| 20260905180952 | 27 | 108 | 3.2 | 4.8 | 0.00 | 1.73 | 1.73 | 76 | 1016.3 |
| 20260905180452 | 27 | 259 | 1.6 | 4.8 | 0.00 | 1.73 | 1.73 | 69 | 1016.2 |
| 20260905175947 | 27 | 252 | 3.2 | 6.4 | 0.00 | 1.73 | 1.73 | 72 | 1016.1 |
| 20260905175446 | 28 | 253 | 1.6 | 4.8 | 0.00 | 1.73 | 1.73 | 67 | 1016.3 |
| 20260905174942 | 27 | 256 | 0.0 | 1.6 | 0.00 | 1.73 | 1.73 | 68 | 1016.2 |
| 20260905174437 | 28 | 274 | 3.2 | 4.8 | 0.00 | 1.73 | 1.73 | 67 | 1016.2 |
| 20260905173933 | 27 | 241 | 0.0 | 1.6 | 0.00 | 1.73 | 1.73 | 71 | 1016.4 |
| 20260905173429 | 28 | 237 | 1.6 | 3.2 | 0.00 | 1.73 | 1.73 | 69 | 1016.2 |
| 20260905172925 | 27 | 260 | 0.0 | 0.0 | 0.00 | 1.73 | 1.73 | 70 | 1016.3 |
| 20260905172422 | 27 | 145 | 1.6 | 3.2 | 0.00 | 1.73 | 1.73 | 73 | 1016.5 |
| 20260905171918 | 27 | 268 | 0.0 | 3.2 | 0.00 | 1.73 | 1.73 | 74 | 1016.4 |
| 20260905171415 | 26 | 256 | 4.8 | 4.8 | 0.00 | 1.73 | 1.73 | 77 | 1016.5 |
| 20260905170911 | 26 | 257 | 0.0 | 0.0 | 0.00 | 1.73 | 1.73 | 76 | 1016.6 |
| 20260905170407 | 27 | 256 | 0.0 | 0.0 | 0.00 | 1.73 | 1.73 | 75 | 1016.7 |
| 20260905165906 | 27 | 178 | 1.6 | 1.6 | 0.00 | 1.73 | 1.73 | 75 | 1017.3 |
| 20260905165401 | 27 | 94 | 6.4 | 6.4 | 0.00 | 1.73 | 1.73 | 74 | 1017.3 |
| 20260905164855 | 26 | 240 | 0.0 | 1.6 | 0.00 | 1.73 | 1.73 | 74 | 1017.4 |
| 20260905164350 | 27 | 136 | 1.6 | 3.2 | 0.00 | 1.73 | 1.73 | 76 | 1017.4 |
| 20260905163846 | 28 | 140 | 1.6 | 4.8 | 0.00 | 1.73 | 1.73 | 74 | 1017.7 |
| 20260905163342 | 27 | 233 | 0.0 | 1.6 | 0.00 | 1.73 | 1.73 | 77 | 1017.9 |
| 20260905162838 | 26 | 260 | 0.0 | 1.6 | 0.00 | 1.73 | 1.73 | 80 | 1017.7 |
| 20260905162337 | 25 | 154 | 1.6 | 4.8 | 0.00 | 1.73 | 1.73 | 85 | 1017.7 |
| 20260905161832 | 24 | 149 | 0.0 | 1.6 | 0.00 | 1.73 | 1.73 | 91 | 1017.6 |
| 20260905161332 | 24 | 125 | 1.6 | 1.6 | 0.00 | 1.73 | 1.73 | 89 | 1017.7 |
| 20260905160830 | 24 | 233 | 0.0 | 3.2 | 0.00 | 1.73 | 1.73 | 87 | 1017.7 |
| 20260905160325 | 23 | 102 | 1.6 | 4.8 | 0.00 | 1.73 | 1.73 | 90 | 1017.7 |
| 20260905155819 | 24 | 250 | 0.0 | 0.0 | 0.00 | 1.73 | 1.73 | 91 | 1017.8 |
| 20260905155318 | 24 | 261 | 1.6 | 3.2 | 0.00 | 1.73 | 1.73 | 89 | 1017.9 |
| 20260905154813 | 23 | 251 | 0.0 | 4.8 | 0.00 | 1.73 | 1.73 | 92 | 1017.8 |
| 20260905154309 | 23 | 255 | 0.0 | 1.6 | 0.00 | 1.73 | 1.73 | 93 | 1017.8 |
| 20260905153804 | 23 | 114 | 1.6 | 3.2 | 0.00 | 1.73 | 1.73 | 95 | 1017.8 |
| 20260905153300 | 22 | 148 | 1.6 | 4.8 | 0.00 | 1.73 | 1.73 | 98 | 1017.6 |
| 20260905152754 | 22 | 256 | 0.0 | 3.2 | 0.00 | 1.73 | 1.73 | 99 | 1017.5 |
| 20260905152253 | 22 | 254 | 0.0 | 1.6 | 0.00 | 1.73 | 1.73 | 99 | 1017.7 |
| 20260905151753 | 21 | 250 | 0.0 | 3.2 | 0.00 | 1.73 | 1.73 | 99 | 1017.6 |
| 20260905151249 | 21 | 148 | 0.0 | 1.6 | 0.00 | 1.73 | 1.73 | 99 | 1017.2 |
| 20260905150744 | 21 | 183 | 1.6 | 1.6 | 0.00 | 1.73 | 1.73 | 99 | 1016.8 |
| 20260905150243 | 21 | 122 | 1.6 | 3.2 | 0.00 | 1.73 | 1.73 | 99 | 1016.7 |
| 20260905145741 | 21 | 242 | 0.0 | 0.0 | 0.00 | 1.73 | 1.73 | 99 | 1016.5 |
| 20260905145236 | 21 | 242 | 0.0 | 1.6 | 0.00 | 1.73 | 1.73 | 99 | 1016.0 |
| 20260905144735 | 21 | 246 | 0.0 | 1.6 | 0.00 | 1.73 | 1.73 | 99 | 1016.0 |
| 20260905144230 | 21 | 232 | 3.2 | 3.2 | 0.00 | 1.73 | 1.73 | 99 | 1016.1 |
| 20260905143729 | 21 | 252 | 0.0 | 3.2 | 0.00 | 1.73 | 1.73 | 99 | 1016.2 |
| 20260905143229 | 21 | 123 | 3.2 | 3.2 | 0.00 | 1.73 | 1.73 | 99 | 1016.7 |
| 20260905142727 | 21 | 125 | 1.6 | 3.2 | 0.00 | 1.73 | 1.73 | 99 | 1016.9 |
| 20260905142222 | 21 | 250 | 0.0 | 0.0 | 0.00 | 1.73 | 1.73 | 99 | 1016.1 |
| 20260905141718 | 21 | 159 | 0.0 | 6.4 | 0.00 | 1.73 | 1.73 | 99 | 1016.5 |
| 20260905141214 | 21 | 146 | 3.2 | 3.2 | 0.00 | 1.73 | 1.73 | 99 | 1016.7 |
| 20260905140709 | 21 | 116 | 4.8 | 9.7 | 0.00 | 1.73 | 1.73 | 99 | 1017.1 |
| 20260905140209 | 21 | 141 | 6.4 | 9.7 | 0.00 | 1.73 | 1.73 | 99 | 1017.1 |
| 20260905135703 | 21 | 148 | 1.6 | 1.6 | 0.00 | 1.73 | 1.73 | 99 | 1017.3 |
| 20260905135200 | 21 | 159 | 1.6 | 4.8 | 0.00 | 1.73 | 1.73 | 99 | 1017.3 |
| 20260905134653 | 21 | 211 | 0.0 | 1.6 | 0.00 | 1.73 | 1.73 | 99 | 1017.6 |
| 20260905134152 | 21 | 238 | 0.0 | 0.0 | 0.00 | 1.73 | 1.73 | 99 | 1017.5 |
| 20260905133648 | 21 | 253 | 0.0 | 0.0 | 0.00 | 1.73 | 1.73 | 99 | 1017.6 |
| 20260905133147 | 21 | 236 | 0.0 | 0.0 | 0.00 | 1.73 | 1.73 | 99 | 1017.9 |
| 20260905132647 | 21 | 225 | 0.0 | 0.0 | 0.00 | 1.73 | 1.73 | 99 | 1017.9 |
| 20260905132142 | 20 | 112 | 1.6 | 1.6 | 0.00 | 1.73 | 1.73 | 99 | 1017.7 |
| 20260905131637 | 20 | 258 | 0.0 | 3.2 | 0.00 | 1.73 | 1.73 | 99 | 1017.6 |
| 20260905131132 | 20 | 265 | 1.6 | 1.6 | 0.00 | 1.73 | 1.73 | 99 | 1017.6 |
| 20260905130626 | 20 | 258 | 1.6 | 1.6 | 0.00 | 1.73 | 1.73 | 99 | 1017.6 |
| 20260905130120 | 20 | 258 | 0.0 | 0.0 | 0.00 | 1.73 | 1.73 | 99 | 1017.9 |
| 20260905125615 | 20 | 250 | 0.0 | 1.6 | 0.00 | 1.73 | 1.73 | 99 | 1018.0 |
| 20260905125111 | 20 | 126 | 0.0 | 0.0 | 0.13 | 1.73 | 1.73 | 99 | 1017.9 |
| 20260905124607 | 20 | 255 | 1.6 | 3.2 | 0.30 | 1.73 | 1.73 | 99 | 1017.6 |
| 20260905124102 | 20 | 263 | 1.6 | 1.6 | 0.48 | 1.70 | 1.70 | 99 | 1017.8 |
| 20260905123557 | 20 | 260 | 1.6 | 1.6 | 1.80 | 1.68 | 1.68 | 99 | 1018.2 |